Wind_Speed
11 11 13 15 13 15 17 18 18 17 17 16 15 15 16 16 17 17 17 17 16 16 15 14 13 13 15 15 16 15 15 14 14 13 13 13 13 13 12 12 11 12 12
12 13 19 20 18 19 20 20 19 18 18 19 19 18 15 16 17 18 18 18 19 19 18 17 16 15 15 16 17 17 16 15 15 15 14 14 13 14 13 13 11 11 11
16 14 16 16 25 24 24 24 24 24 25 25 22 19 18 17 14 15 17 19 20 20 20 20 19 18 17 17 17 17 17 17 16 16 16 15 15 14 14 14 13 13 12
20 22 23 23 29 24 25 26 27 28 29 28 27 25 24 23 23 23 21 18 19 20 21 23 23 21 20 19 18 18 17 17 17 17 17 17 16 16 15 15 15 14 13
24 21 28 27 27 26 31 32 27 31 30 33 32 31 30 28 27 26 26 26 25 23 19 22 26 25 23 21 20 19 19 18 17 17 18 17 16 16 16 16 15 14 15
24 22 26 28 30 37 39 30 30 30 34 37 39 38 37 36 33 29 28 27 27 27 28 27 24 22 27 25 23 21 20 19 19 19 19 18 14 15 17 17 17 14 15
32 30 30 33 35 34 34 33 40 38 42 39 42 37 40 41 39 39 38 35 33 31 30 30 28 26 25 26 26 24 25 22 21 20 21 20 17 16 16 18 17 16 16
28 29 32 33 36 37 38 41 40 39 39 39 42 47 47 44 35 38 40 37 35 36 34 32 32 29 27 25 28 35 30 28 24 23 23 23 21 18 17 18 18 18 17
34 36 37 37 37 37 37 38 39 40 42 46 44 44 43 40 44 43 44 38 34 36 39 38 35 35 34 30 27 30 36 30 29 26 24 25 24 22 19 21 21 20 19
32 33 33 35 37 41 43 43 42 42 41 43 47 49 46 44 51 51 46 45 43 42 42 43 41 41 38 37 33 31 32 39 28 30 30 27 26 24 23 23 23 21 20
33 37 39 40 37 33 32 33 35 39 41 42 42 42 44 48 52 51 48 49 49 46 43 44 44 43 45 36 38 34 33 32 35 38 32 29 30 27 25 26 26 25 24
40 39 35 36 39 39 37 37 35 33 33 35 36 36 39 42 44 47 51 49 49 50 50 49 48 47 47 44 42 40 37 36 36 35 35 36 35 33 33 30 28 29 29
41 43 44 44 44 44 44 41 37 34 34 35 36 38 37 37 39 42 45 47 49 49 51 55 52 52 50 49 47 44 43 40 38 39 39 47 44 39 36 35 32 31 31
43 43 41 40 40 40 40 41 43 43 40 33 30 33 37 41 41 39 40 42 45 47 49 51 57 57 54 53 50 47 46 43 42 41 43 43 51 46 40 36 35 35 36
41 42 42 43 43 43 42 42 41 41 40 41 39 30 29 33 39 42 41 41 42 42 45 45 49 54 58 57 55 53 50 48 46 44 44 45 45 45 45 43 39 41 41
44 43 42 42 42 42 42 41 40 39 39 38 38 37 32 31 32 34 41 42 42 41 41 43 44 45 51 55 57 56 55 52 50 48 48 48 47 45 44 47 48 49 31
44 44 43 43 43 45 45 43 43 40 37 35 33 33 34 32 31 33 34 39 43 42 42 44 42 42 44 48 52 52 54 56 55 54 53 53 52 51 48 47 49 53 51
45 46 47 46 45 45 45 43 41 38 36 33 33 33 33 32 30 31 35 35 37 45 43 43 45 42 43 45 47 50 52 52 54 56 56 57 57 55 54 51 49 50 49
44 45 44 43 42 42 40 38 35 34 34 33 34 34 35 35 37 37 34 35 35 41 44 44 46 49 48 46 48 47 48 50 51 54 56 59 59 58 54 53 53 52 50
42 45 44 40 38 36 37 34 31 31 31 31 30 30 32 35 36 41 43 39 38 37 44 47 46 47 49 42 39 43 44 44 50 52 54 58 60 58 55 53 52 54 52
39 44 46 42 38 38 36 37 35 33 31 29 28 28 29 31 33 33 37 39 39 42 39 47 48 49 49 44 39 40 39 40 42 50 52 53 57 59 54 51 53 53 52
40 42 43 41 40 40 38 38 38 37 34 32 29 27 26 27 30 33 33 35 37 39 41 40 49 51 51 49 39 40 41 36 37 43 48 51 51 53 56 51 52 53 52
41 43 43 42 42 42 40 40 41 40 36 33 30 29 29 28 26 29 33 33 32 40 39 40 42 51 51 49 46 40 40 38 33 31 38 43 42 46 50 52 52 52 53
43 43 42 42 43 41 43 44 44 43 42 34 30 29 29 30 29 25 29 31 31 36 39 40 41 50 52 51 46 48 44 38 35 33 29 30 33 36 41 44 48 48 51
44 42 42 42 41 40 43 41 41 41 40 36 29 27 28 29 29 27 25 27 29 30 37 37 39 42 52 53 50 47 43 38 34 33 33 29 28 32 36 38 40 42 44
42 41 42 43 43 41 40 40 41 40 39 32 24 25 26 28 32 32 25 24 26 25 33 33 35 39 42 50 54 52 48 43 38 37 36 29 28 29 33 35 37 35 38
Wind_Direction
266 277 279 275 283 290 292 292 291 287 286 293 290 279 274 275 275 273 272 271 271 270 269 269 267 262 258 256 258 261 251 250 248 246 242 241 238 235 231 228 225 225 222
286 288 287 289 290 287 287 285 285 284 281 283 283 280 283 278 273 271 271 270 269 267 265 265 265 263 258 254 251 255 258 253 253 250 246 242 238 236 231 226 216 226 226
306 292 301 286 288 285 285 288 285 282 281 282 277 273 273 273 279 280 276 273 270 270 265 259 258 259 258 256 253 249 250 253 251 250 246 242 237 235 231 227 218 218 219
288 291 279 296 292 282 289 282 284 284 281 276 274 271 272 272 270 270 272 278 276 268 268 260 253 251 253 254 255 253 249 248 250 248 246 242 240 236 234 230 222 217 216
275 280 282 293 273 285 281 283 282 274 281 274 272 270 270 269 268 268 266 263 265 271 271 267 249 247 248 249 252 252 252 249 248 247 248 246 241 239 234 233 223 219 214
282 279 289 279 267 284 281 275 272 277 267 273 275 267 270 268 266 264 264 264 264 264 263 265 268 266 251 247 245 249 249 248 248 251 251 250 238 233 235 234 228 221 221
295 295 284 281 285 281 282 280 281 273 270 269 267 272 260 263 266 267 266 263 260 261 261 262 262 260 255 247 242 252 249 247 243 246 253 253 246 238 238 235 229 223 223
305 298 293 289 288 287 285 283 275 273 273 272 269 263 266 266 263 261 250 248 254 260 259 258 256 253 251 253 246 243 248 244 243 241 243 246 250 244 240 237 232 229 228
312 310 307 305 301 297 293 289 284 281 275 271 270 272 265 272 272 271 266 258 254 252 258 260 256 252 250 248 248 242 241 244 241 238 240 247 246 244 241 237 237 232 231
313 311 309 308 306 302 300 296 292 289 285 277 273 275 271 270 266 270 266 267 263 259 256 255 252 253 242 245 246 244 239 249 240 241 238 242 243 240 239 238 239 239 235
310 309 309 308 308 306 302 297 293 289 284 278 274 269 268 268 264 264 264 262 258 253 252 251 249 246 248 245 244 245 241 240 244 248 246 239 241 240 240 238 238 240 241
317 318 317 316 314 312 308 304 298 293 291 287 284 279 269 265 261 259 261 260 258 258 253 249 248 246 245 247 246 241 240 236 233 234 240 240 242 239 239 240 238 239 238
330 325 322 321 320 317 315 313 309 302 293 283 279 278 279 276 271 264 258 254 252 252 251 251 246 246 246 245 244 244 241 237 236 232 235 233 232 235 232 238 239 237 235
324 322 323 323 321 318 314 311 310 310 308 304 290 277 271 270 270 267 268 265 258 248 247 246 248 245 244 245 243 240 240 238 234 232 230 233 234 240 237 235 235 235 235
326 326 327 325 322 320 317 316 315 311 306 303 300 290 281 276 268 266 265 261 261 260 257 249 245 243 242 242 242 242 239 238 238 234 233 234 235 238 237 237 235 235 231
331 330 327 323 320 317 314 314 312 310 307 304 297 296 288 277 272 269 263 260 257 257 255 258 252 245 244 240 238 239 240 239 238 239 237 238 236 236 235 235 236 235 235
329 328 326 323 320 315 314 312 309 308 306 304 298 293 292 287 276 268 263 260 257 253 253 252 254 254 248 245 239 234 236 238 238 237 238 239 239 238 234 234 235 239 244
331 330 329 326 321 315 313 310 307 305 303 301 296 293 289 284 280 274 268 261 254 252 250 248 249 248 251 251 249 240 233 232 234 236 236 237 239 239 238 235 235 237 243
335 336 334 332 329 325 320 314 312 307 302 299 295 291 287 280 275 274 270 266 259 249 245 245 245 250 252 250 252 253 245 234 231 231 233 236 236 239 239 238 237 236 238
346 344 340 337 335 332 330 330 330 327 321 313 304 297 290 284 279 273 268 264 260 250 241 239 241 244 250 256 254 255 255 249 238 233 230 233 236 237 238 238 238 238 238
349 351 352 348 347 345 345 345 344 336 330 325 317 309 301 292 285 282 274 267 253 252 245 240 237 239 246 249 249 250 252 255 250 240 235 233 234 236 237 236 237 237 238
347 350 352 351 354 352 349 347 341 334 330 326 324 320 315 303 290 282 278 270 259 248 247 242 236 235 240 244 243 249 253 255 254 249 244 240 238 237 237 235 234 235 234
344 345 343 344 346 347 347 347 344 341 327 320 320 322 323 319 304 288 280 273 267 249 247 240 236 232 238 240 244 245 251 252 260 250 248 249 246 242 238 238 236 234 233
344 344 348 348 349 347 345 341 341 342 341 329 316 320 322 321 320 301 282 274 271 252 245 241 236 232 234 238 239 245 250 253 255 260 248 244 241 241 242 240 239 237 236
341 343 347 347 345 347 343 342 339 339 338 335 328 324 325 322 323 318 298 282 270 260 243 239 237 237 234 237 237 242 246 247 245 252 255 243 241 234 235 237 239 239 238
345 348 348 350 348 348 347 343 340 341 339 334 329 329 330 330 331 325 308 291 273 266 246 240 235 236 235 236 239 240 242 241 243 248 253 250 245 230 233 236 239 238 238
Height
3177 3175 3173 3171 3171 3171 3170 3168 3166 3165 3163 3162 3161 3160 3159 3159 3158 3157 3156 3156 3155 3154 3154 3153 3152 3151 3151 3151 3151 3151 3151 3150 3150 3150 3150 3151 3151 3152 3152 3152 3153 3154 3154
3174 3174 3172 3171 3169 3168 3166 3165 3164 3162 3161 3159 3158 3156 3156 3154 3154 3152 3152 3152 3152 3152 3151 3150 3149 3149 3148 3148 3148 3148 3148 3148 3148 3148 3148 3148 3149 3149 3150 3151 3152 3152 3153
3173 3173 3171 3169 3167 3165 3164 3163 3161 3160 3158 3156 3154 3153 3152 3151 3149 3148 3148 3147 3147 3147 3147 3147 3146 3146 3145 3145 3145 3145 3145 3146 3145 3146 3146 3146 3146 3147 3148 3148 3150 3150 3151
3170 3169 3166 3165 3163 3161 3160 3159 3157 3156 3154 3151 3150 3148 3147 3146 3145 3144 3143 3143 3142 3141 3142 3142 3141 3142 3141 3141 3141 3142 3142 3142 3143 3143 3143 3144 3144 3145 3146 3146 3147 3148 3149
3167 3165 3163 3163 3160 3156 3154 3153 3151 3149 3147 3146 3144 3143 3141 3140 3139 3139 3137 3137 3137 3136 3136 3135 3134 3136 3136 3137 3138 3138 3139 3139 3139 3139 3140 3141 3142 3142 3143 3144 3145 3146 3146
3161 3159 3157 3156 3153 3151 3150 3147 3145 3143 3141 3139 3136 3135 3134 3133 3132 3132 3131 3131 3131 3130 3130 3130 3130 3130 3130 3131 3133 3134 3135 3136 3136 3136 3136 3137 3140 3139 3140 3141 3142 3143 3144
3155 3154 3154 3151 3148 3143 3140 3138 3136 3134 3132 3130 3129 3127 3126 3125 3124 3124 3124 3123 3123 3123 3123 3123 3124 3125 3125 3124 3125 3128 3131 3131 3132 3133 3133 3133 3136 3137 3138 3139 3139 3140 3141
3152 3148 3146 3143 3140 3135 3133 3130 3127 3125 3122 3120 3117 3116 3115 3115 3115 3114 3114 3113 3113 3116 3115 3115 3116 3117 3119 3120 3120 3122 3124 3126 3128 3129 3129 3130 3131 3133 3135 3136 3136 3137 3138
3145 3141 3138 3135 3132 3128 3125 3122 3118 3114 3112 3109 3107 3106 3104 3102 3102 3103 3105 3105 3105 3106 3107 3108 3109 3109 3110 3112 3114 3115 3117 3119 3122 3123 3124 3125 3126 3129 3131 3131 3133 3133 3135
3141 3137 3133 3129 3124 3119 3114 3111 3108 3105 3101 3099 3097 3095 3094 3093 3093 3093 3093 3092 3094 3096 3098 3099 3100 3102 3101 3103 3105 3108 3110 3112 3115 3118 3119 3120 3121 3123 3126 3127 3128 3130 3131
3137 3130 3124 3118 3111 3108 3104 3101 3096 3093 3090 3088 3085 3084 3082 3082 3083 3082 3082 3082 3082 3084 3087 3089 3090 3092 3093 3094 3097 3099 3101 3104 3107 3111 3113 3115 3115 3116 3120 3122 3124 3125 3127
3128 3121 3115 3109 3103 3099 3094 3090 3087 3084 3081 3077 3073 3071 3069 3068 3068 3067 3069 3070 3070 3071 3073 3076 3080 3081 3082 3084 3088 3089 3092 3094 3098 3101 3105 3107 3109 3110 3114 3116 3118 3120 3122
3114 3108 3103 3097 3091 3086 3081 3076 3073 3071 3070 3067 3064 3062 3059 3057 3056 3055 3054 3055 3055 3057 3059 3062 3065 3068 3071 3073 3076 3080 3082 3084 3087 3091 3094 3097 3100 3102 3106 3109 3112 3114 3116
3109 3103 3097 3091 3085 3079 3075 3068 3062 3057 3054 3054 3054 3052 3048 3047 3046 3045 3043 3042 3042 3042 3043 3046 3049 3054 3057 3061 3064 3068 3071 3074 3076 3081 3083 3087 3091 3094 3098 3101 3104 3107 3109
3103 3096 3089 3082 3076 3070 3064 3058 3054 3050 3045 3041 3038 3039 3038 3036 3034 3034 3032 3031 3032 3031 3030 3031 3035 3038 3042 3047 3051 3055 3059 3063 3067 3070 3074 3076 3079 3083 3088 3093 3095 3093 3098
3096 3089 3083 3077 3070 3063 3057 3051 3046 3041 3036 3032 3028 3025 3025 3025 3023 3021 3021 3021 3022 3021 3019 3019 3021 3024 3027 3031 3036 3041 3046 3051 3056 3061 3064 3066 3068 3072 3076 3081 3086 3085 3073
3092 3084 3077 3069 3061 3053 3047 3042 3036 3031 3026 3022 3018 3016 3012 3011 3011 3010 3009 3009 3009 3010 3009 3009 3011 3014 3014 3017 3021 3028 3033 3037 3043 3047 3052 3055 3057 3061 3065 3069 3073 3075 3075
3085 3076 3065 3058 3050 3043 3036 3030 3026 3021 3015 3013 3009 3006 3003 3001 2999 2998 2996 2996 2998 2999 2998 2999 3000 3001 3005 3006 3009 3014 3018 3023 3029 3034 3039 3043 3047 3050 3054 3058 3061 3065 3067
3078 3068 3058 3049 3040 3032 3026 3020 3016 3011 3006 3003 2999 2995 2992 2990 2988 2985 2984 2984 2985 2985 2986 2989 2990 2992 2994 2996 2999 3001 3005 3010 3016 3020 3025 3030 3035 3040 3044 3048 3051 3054 3057
3071 3063 3053 3043 3034 3026 3019 3013 3007 3001 2997 2993 2988 2984 2981 2977 2974 2971 2969 2969 2971 2972 2974 2977 2979 2982 2984 2988 2990 2991 2995 2997 3002 3007 3012 3015 3021 3028 3032 3037 3040 3043 3048
3069 3059 3047 3038 3029 3020 3012 3005 2998 2993 2989 2985 2981 2975 2970 2966 2962 2959 2956 2956 2957 2958 2962 2965 2968 2971 2974 2977 2980 2981 2984 2987 2989 2995 3000 3004 3009 3015 3021 3026 3029 3032 3037
3064 3055 3047 3038 3026 3017 3009 3001 2994 2987 2982 2976 2972 2968 2963 2957 2952 2948 2946 2944 2945 2946 2948 2951 2956 2959 2962 2968 2970 2973 2975 2978 2980 2985 2988 2992 2998 3002 3007 3014 3018 3021 3026
3061 3052 3043 3033 3023 3015 3006 2998 2991 2984 2976 2969 2964 2959 2954 2950 2944 2939 2935 2933 2933 2934 2935 2940 2942 2947 2952 2957 2961 2964 2965 2969 2973 2975 2979 2982 2987 2992 2996 3001 3006 3010 3015
3058 3049 3040 3030 3020 3011 3002 2993 2985 2975 2967 2962 2956 2953 2948 2942 2937 2931 2926 2923 2922 2921 2924 2928 2931 2935 2940 2945 2951 2955 2959 2961 2964 2966 2970 2974 2977 2983 2987 2990 2994 3000 3006
3056 3045 3036 3026 3017 3008 2999 2990 2981 2972 2963 2955 2950 2945 2941 2935 2929 2923 2918 2914 2912 2911 2913 2917 2922 2925 2931 2935 2940 2946 2951 2953 2957 2959 2962 2966 2970 2974 2976 2981 2983 2989 2994
3054 3043 3034 3023 3014 3005 2994 2987 2978 2967 2958 2950 2945 2939 2934 2928 2921 2914 2910 2906 2903 2902 2904 2908 2912 2915 2920 2925 2929 2935 2941 2946 2949 2953 2955 2957 2962 2967 2968 2972 2976 2981 2984